Roseau, MN

1:48 PM CDT on March 28, 2017 (GMT -0500)
Roseau Municipal-Billberg

Weather History for KROX - January, 2013

Change the Weather History Date:

Monday, January 14, 2013

  Actual Average Record
Temperature  
Mean Temperature 12 °F -  
Max Temperature 30 °F 11 °F 33 °F (1973)
Min Temperature -7 °F -8 °F -39 °F (1965)
Degree Days  
Heating Degree Days 54    
Moisture  
Dew Point -6 °F    
Average Humidity 76    
Maximum Humidity 85    
Minimum Humidity 21    
Precipitation  
Precipitation 0.00 in - - ()
Sea Level Pressure  
Sea Level Pressure 30.18 in    
Wind  
Wind Speed 5 mph (SW)    
Max Wind Speed 9 mph    
Max Gust Speed -    
Visibility 9 miles    
Events Snow    
Averages and records for this station are not official NWS values.
T = Trace of Precipitation, MM = Missing Value Source: NWS Daily Summary

Daily Weather History Graph

Daily Weather History Graph

Search for Another Location

Airport or City:

Trip Planner

Search our weather history database for the weather conditions in past years. The results will help you decide how hot, cold, wet, or windy it might be!

Date:

Astronomy

Jan. 14, 2013 Rise Set
Actual Time 8:11 AM CST 4:53 PM CST
Civil Twilight 7:35 AM CST 5:28 PM CST
Nautical Twilight 6:56 AM CST 6:08 PM CST
Astronomical Twilight 6:18 AM CST 6:46 PM CST
Moon 9:24 AM CST (1/14) 9:03 PM CST (1/14)
Length of Visible Light 9h 53m
Length of Day
8h 41m
Waxing Crescent, 11% of the Moon is Illuminated
Jan 14
Waxing Crescent
Jan 18
First Quarter
Jan 26
Full
Feb 3
Last Quarter
Feb 10
New

Hourly Weather History & Observations

Time (CST) Temp. Windchill Dew Point Humidity Pressure Visibility Wind Dir Wind Speed Gust Speed Precip Events Conditions
12:15 AM 1.4 °F -8.3 °F -5.8 °F 72% 30.17 in 10.0 mi West 4.6 mph - N/A   Overcast
12:34 AM 1.4 °F -6.2 °F -5.8 °F 72% 30.18 in 10.0 mi WNW 3.5 mph - N/A   Overcast
12:54 AM 1.4 °F - -5.8 °F 72% 30.17 in 10.0 mi Calm Calm - N/A   Overcast
1:15 AM 1.4 °F - -5.8 °F 72% 30.18 in 10.0 mi Calm Calm - N/A   Overcast
1:34 AM 1.4 °F - -5.8 °F 72% 30.18 in 5.0 mi Calm Calm - N/A Snow Light Snow
1:54 AM 1.4 °F - -5.8 °F 72% 30.18 in 5.0 mi Calm Calm - N/A Snow Light Snow
2:15 AM 1.4 °F - -4.0 °F 78% 30.18 in 5.0 mi Calm Calm - N/A Snow Light Snow
2:34 AM 1.4 °F -6.2 °F -4.0 °F 78% 30.19 in 5.0 mi SW 3.5 mph - N/A Snow Light Snow
2:54 AM 1.4 °F - -4.0 °F 78% 30.19 in 5.0 mi Calm Calm - N/A Snow Light Snow
3:15 AM 1.4 °F -6.2 °F -4.0 °F 78% 30.19 in 5.0 mi SW 3.5 mph - N/A Snow Light Snow
3:34 AM 1.4 °F - -4.0 °F 78% 30.19 in 5.0 mi Calm Calm - N/A Snow Light Snow
3:54 AM 1.4 °F - -4.0 °F 78% 30.18 in 7.0 mi Calm Calm - N/A Snow Light Snow
4:15 AM 1.4 °F -6.2 °F -4.0 °F 78% 30.18 in 5.0 mi SSW 3.5 mph - N/A Snow Light Snow
4:34 AM 1.4 °F -9.9 °F -4.0 °F 78% 30.18 in 10.0 mi SW 5.8 mph - N/A   Overcast
4:55 AM 1.4 °F -8.3 °F -4.0 °F 78% 30.18 in 10.0 mi SW 4.6 mph - N/A   Overcast
5:14 AM 1.4 °F -11.3 °F -4.0 °F 78% 30.18 in 10.0 mi SW 6.9 mph - N/A   Overcast
5:35 AM 1.4 °F -9.9 °F -4.0 °F 78% 30.18 in 10.0 mi SW 5.8 mph - N/A   Overcast
5:54 AM 1.4 °F -9.9 °F -4.0 °F 78% 30.18 in 10.0 mi SSW 5.8 mph - N/A   Overcast
6:14 AM 1.4 °F -8.3 °F -4.0 °F 78% 30.18 in 10.0 mi SW 4.6 mph - N/A   Overcast
6:34 AM 1.4 °F -8.3 °F -4.0 °F 78% 30.18 in 10.0 mi SW 4.6 mph - N/A   Overcast
6:54 AM 1.4 °F -9.9 °F -4.0 °F 78% 30.19 in 10.0 mi WSW 5.8 mph - N/A   Overcast
7:14 AM 1.4 °F -9.9 °F -4.0 °F 78% 30.20 in 10.0 mi SW 5.8 mph - N/A   Overcast
7:34 AM 1.4 °F -8.3 °F -4.0 °F 78% 30.20 in 7.0 mi SSW 4.6 mph - N/A   Overcast
7:54 AM 1.4 °F -11.3 °F -4.0 °F 78% 30.21 in 7.0 mi SSW 6.9 mph - N/A   Overcast
8:14 AM -0.4 °F -12.0 °F -5.8 °F 78% 30.21 in 7.0 mi SSW 5.8 mph - N/A Snow Light Snow
8:34 AM -2.2 °F -15.6 °F -7.6 °F 78% 30.21 in 10.0 mi SSW 6.9 mph - N/A Snow Light Snow
8:54 AM -2.2 °F -15.6 °F -7.6 °F 78% 30.22 in 10.0 mi SW 6.9 mph - N/A Snow Light Snow
9:14 AM -4.0 °F -17.8 °F -9.4 °F 78% 30.22 in 10.0 mi SSW 6.9 mph - N/A   Clear
9:34 AM -2.2 °F -16.8 °F -9.4 °F 71% 30.22 in 10.0 mi SSW 8.1 mph - N/A   Clear
9:54 AM -2.2 °F -15.6 °F -9.4 °F 71% 30.23 in 10.0 mi SW 6.9 mph - N/A   Scattered Clouds
10:14 AM -2.2 °F -14.2 °F -9.4 °F 71% 30.23 in 10.0 mi SW 5.8 mph - N/A Snow Light Snow
10:34 AM -2.2 °F -16.8 °F -9.4 °F 71% 30.23 in 10.0 mi SW 8.1 mph - N/A   Scattered Clouds
10:54 AM -2.2 °F -18.0 °F -7.6 °F 78% 30.23 in 10.0 mi SW 9.2 mph - N/A   Clear
11:14 AM -2.2 °F -16.8 °F -7.6 °F 78% 30.23 in 10.0 mi SW 8.1 mph - N/A   Clear
11:34 AM -0.4 °F -15.7 °F -7.6 °F 72% 30.23 in 10.0 mi SW 9.2 mph - N/A   Clear
12:14 PM -0.4 °F -15.7 °F -5.8 °F 78% 30.21 in 10.0 mi SW 9.2 mph - N/A Snow Light Snow
12:34 PM 1.4 °F -12.5 °F -5.8 °F 72% 30.21 in 10.0 mi SW 8.1 mph - N/A   Mostly Cloudy
12:54 PM 1.4 °F -11.3 °F -4.0 °F 78% 30.21 in 7.0 mi SW 6.9 mph - N/A Snow Light Snow
1:14 PM 1.4 °F -12.5 °F -4.0 °F 78% 30.20 in 10.0 mi SW 8.1 mph - N/A   Scattered Clouds
1:32 PM 1.4 °F - -4.0 °F 78% 30.20 in 10.0 mi North - - N/A Snow Light Snow
1:54 PM 3.2 °F -10.3 °F -2.2 °F 78% 30.19 in 10.0 mi WSW 8.1 mph - N/A   Clear
2:14 PM 3.2 °F -9.1 °F -2.2 °F 78% 30.19 in 10.0 mi WSW 6.9 mph - N/A   Clear
2:35 PM 3.2 °F -10.3 °F -2.2 °F 78% 30.20 in 10.0 mi WSW 8.1 mph - N/A   Clear
2:54 PM 3.2 °F -11.3 °F -4.0 °F 72% 30.20 in 10.0 mi SW 9.2 mph - N/A   Clear
3:14 PM 3.2 °F -10.3 °F -4.0 °F 72% 30.20 in 10.0 mi SW 8.1 mph - N/A   Clear
3:35 PM 1.4 °F -12.5 °F -5.8 °F 72% 30.19 in 10.0 mi SW 8.1 mph - N/A   Clear
4:14 PM 30.2 °F 23.4 °F -5.8 °F 21% 30.19 in 10.0 mi SW 6.9 mph - N/A   Clear
4:35 PM -0.4 °F - -7.6 °F 72% 30.18 in 10.0 mi North - - N/A   Clear
4:54 PM -0.4 °F -14.7 °F -7.6 °F 72% - 10.0 mi SW 8.1 mph - N/A   Clear
5:14 PM -0.4 °F -13.4 °F -7.6 °F 72% 30.18 in 10.0 mi SW 6.9 mph - N/A   Clear
5:34 PM -2.2 °F -12.5 °F -7.6 °F 78% 30.18 in 10.0 mi SW 4.6 mph - N/A   Clear
5:54 PM -5.8 °F -14.5 °F -11.2 °F 77% 30.18 in 10.0 mi SW 3.5 mph - N/A   Clear
6:14 PM -4.0 °F -12.4 °F -9.4 °F 78% 30.18 in 10.0 mi SW 3.5 mph - N/A   Clear
6:34 PM -5.8 °F -14.5 °F -11.2 °F 77% 30.18 in 10.0 mi SSW 3.5 mph - N/A   Clear
6:54 PM -7.6 °F -16.5 °F -13.0 °F 77% 30.17 in 10.0 mi SSW 3.5 mph - N/A   Clear
7:14 PM -4.0 °F -16.3 °F -9.4 °F 78% 30.17 in 10.0 mi South 5.8 mph - N/A   Clear
7:34 PM -7.6 °F -18.8 °F -13.0 °F 77% 30.17 in 10.0 mi South 4.6 mph - N/A   Clear
7:55 PM -7.6 °F -20.6 °F -13.0 °F 77% 30.17 in 10.0 mi South 5.8 mph - N/A   Clear
8:14 PM -7.6 °F -20.6 °F -13.0 °F 77% 30.16 in 10.0 mi South 5.8 mph - N/A   Scattered Clouds
8:34 PM -5.8 °F -16.7 °F -11.2 °F 77% 30.15 in 10.0 mi SW 4.6 mph - N/A   Mostly Cloudy
8:55 PM -4.0 °F -12.4 °F -9.4 °F 78% 30.15 in 10.0 mi SSW 3.5 mph - N/A   Scattered Clouds
9:14 PM -2.2 °F -10.4 °F -7.6 °F 78% 30.15 in 10.0 mi SSW 3.5 mph - N/A   Clear
9:34 PM 1.4 °F -13.5 °F -5.8 °F 72% 30.14 in 10.0 mi SW 9.2 mph - N/A   Mostly Cloudy
9:55 PM 1.4 °F -13.5 °F -2.2 °F 85% 30.14 in 10.0 mi SSW 9.2 mph - N/A   Overcast
10:14 PM 1.4 °F -13.5 °F -2.2 °F 85% 30.13 in 10.0 mi SSW 9.2 mph - N/A   Overcast
10:34 PM 1.4 °F -13.5 °F -2.2 °F 85% 30.12 in 10.0 mi SSW 9.2 mph - N/A   Overcast
10:55 PM 1.4 °F -13.5 °F -4.0 °F 78% 30.12 in 10.0 mi SSW 9.2 mph - N/A   Mostly Cloudy
11:14 PM 1.4 °F -13.5 °F -5.8 °F 72% 30.11 in 10.0 mi SSW 9.2 mph - N/A   Scattered Clouds
11:34 PM -0.4 °F -14.7 °F -5.8 °F 78% 30.11 in 10.0 mi South 8.1 mph - N/A   Mostly Cloudy
11:55 PM -2.2 °F -16.8 °F -7.6 °F 78% 30.11 in 10.0 mi South 8.1 mph - N/A   Mostly Cloudy